,,,PA_Meas_PMT16A,,PR_Meas_QMR101_102,,RH_Meas_QMH101,,SR_Meas_QMS101,,TA_Meas_QMH101,,GenWind,,GenWind,
date,time,status,PA,status,PR,status,RH,status,SR,status,TA,status,DirAvg,status,SpdAvg,
2011-02-20, 00:00:04,VALID,1004.81,VALID,0,VALID,89.0061,VALID,0,VALID,26.194,VALID,1,VALID,1.23789,
2011-02-20, 00:01:04,VALID,1004.82,VALID,0,VALID,89.2884,VALID,0,VALID,26.2134,VALID,331,VALID,0.476172,
2011-02-20, 00:02:04,VALID,1004.78,VALID,0,VALID,89.1587,VALID,0,VALID,26.2134,VALID,337,VALID,0.744922,
2011-02-20, 00:03:04,VALID,1004.76,VALID,0,VALID,89.113,VALID,0,VALID,26.194,VALID,343,VALID,0.841797,
2011-02-20, 00:04:04,VALID,1004.72,VALID,0,VALID,88.8078,VALID,0.100563,VALID,26.1725,VALID,339,VALID,1.05469,
2011-02-20, 00:05:04,VALID,1004.7,VALID,0,VALID,88.762,VALID,0.100563,VALID,26.194,VALID,353,VALID,1.33633,
2011-02-20, 00:06:04,VALID,1004.68,VALID,0,VALID,88.9604,VALID,0,VALID,26.194,VALID,348,VALID,0.748438,
2011-02-20, 00:07:04,VALID,1004.7,VALID,0,VALID,89.296,VALID,0,VALID,26.1745,VALID,344,VALID,0.630469,
2011-02-20, 00:08:04,VALID,1004.69,VALID,0,VALID,89.4028,VALID,0,VALID,26.155,VALID,355,VALID,0.594531,
2011-02-20, 00:09:04,VALID,1004.71,VALID,0,VALID,89.1587,VALID,0,VALID,26.1355,VALID,327,VALID,1.41992,
2011-02-20, 00:10:04,VALID,1004.71,VALID,0,VALID,89.1587,VALID,0,VALID,26.1355,VALID,352,VALID,1.49492,
2011-02-20, 00:11:04,VALID,1004.71,VALID,0,VALID,89.0595,VALID,0,VALID,26.1375,VALID,331,VALID,0.682813,
2011-02-20, 00:12:04,VALID,1004.73,VALID,0,VALID,89.0672,VALID,0,VALID,26.157,VALID,348,VALID,0.553516,
2011-02-20, 00:13:04,VALID,1004.75,VALID,0,VALID,89.235,VALID,0,VALID,26.157,VALID,350,VALID,0.547266,
2011-02-20, 00:14:04,VALID,1004.75,VALID,0,VALID,89.3113,VALID,0,VALID,26.1375,VALID,355,VALID,0.754687,
2011-02-20, 00:15:04,VALID,1004.74,VALID,0,VALID,88.968,VALID,0,VALID,26.1784,VALID,343,VALID,1.20195,
2011-02-20, 00:16:04,VALID,1004.73,VALID,0,VALID,89.0977,VALID,0,VALID,26.157,VALID,314,VALID,0.304297,
2011-02-20, 00:17:04,VALID,1004.66,VALID,0,VALID,89.3342,VALID,0,VALID,26.157,VALID,336,VALID,0.206641,
2011-02-20, 00:18:04,VALID,1004.7,VALID,0,VALID,89.113,VALID,0,VALID,26.157,VALID,328,VALID,0.4,
2011-02-20, 00:19:04,VALID,1004.65,VALID,0,VALID,88.907,VALID,0,VALID,26.157,VALID,1,VALID,0.680469,
2011-02-20, 00:20:04,VALID,1004.63,VALID,0,VALID,89.0824,VALID,0,VALID,26.1765,VALID,347,VALID,0.547266,
2011-02-20, 00:21:04,VALID,1004.64,VALID,0,VALID,89.0061,VALID,0,VALID,26.1355,VALID,348,VALID,0.702734,
2011-02-20, 00:22:04,VALID,1004.63,VALID,0,VALID,89.029,VALID,0,VALID,26.1959,VALID,329,VALID,0.523438,
2011-02-20, 00:23:04,VALID,1004.62,VALID,0,VALID,89.1969,VALID,0,VALID,26.1959,VALID,317,VALID,0.0765625,
2011-02-20, 00:24:04,VALID,1004.62,VALID,0,VALID,89.0748,VALID,0,VALID,26.1959,VALID,300,VALID,0.548047,
2011-02-20, 00:25:04,VALID,1004.56,VALID,0,VALID,89.2732,VALID,0,VALID,26.1959,VALID,339,VALID,0.639453,
2011-02-20, 00:26:04,VALID,1004.56,VALID,0,VALID,89.2426,VALID,0,VALID,26.1959,VALID,1,VALID,0.440234,
2011-02-20, 00:27:04,VALID,1004.55,VALID,0,VALID,89.2503,VALID,0,VALID,26.1765,VALID,1,VALID,0.388672,
2011-02-20, 00:28:04,VALID,1004.51,VALID,0,VALID,89.0748,VALID,0,VALID,26.1784,VALID,2,VALID,0.801172,
2011-02-20, 00:29:04,VALID,1004.51,VALID,0,VALID,89.2579,VALID,0,VALID,26.157,VALID,327,VALID,0.810156,
2011-02-20, 00:30:04,VALID,1004.48,VALID,0,VALID,89.5325,VALID,0,VALID,26.1765,VALID,345,VALID,0.460938,
2011-02-20, 00:31:04,VALID,1004.45,VALID,0,VALID,89.5173,VALID,0,VALID,26.157,VALID,5,VALID,0.794141,
2011-02-20, 00:32:04,VALID,1004.45,VALID,0,VALID,89.7309,VALID,0,VALID,26.1375,VALID,351,VALID,0.44375,
2011-02-20, 00:33:04,VALID,1004.4,VALID,0,VALID,89.6317,VALID,0,VALID,26.118,VALID,360,VALID,1.21523,
2011-02-20, 00:34:04,VALID,1004.4,VALID,0,VALID,89.4105,VALID,0,VALID,26.0966,VALID,358,VALID,1.01563,
2011-02-20, 00:35:04,VALID,1004.39,VALID,0,VALID,89.0824,VALID,0,VALID,26.157,VALID,18,VALID,1.92852,
2011-02-20, 00:36:04,VALID,1004.4,VALID,0,VALID,88.8993,VALID,0,VALID,26.1765,VALID,5,VALID,0.994141,
2011-02-20, 00:37:04,VALID,1004.38,VALID,0,VALID,88.968,VALID,0,VALID,26.2154,VALID,325,VALID,0.766406,
2011-02-20, 00:38:04,VALID,1004.41,VALID,0,VALID,89.0367,VALID,0,VALID,26.1959,VALID,20,VALID,1.09766,
2011-02-20, 00:39:04,VALID,1004.4,VALID,0,VALID,89.2121,VALID,0,VALID,26.1765,VALID,33,VALID,0.579297,
2011-02-20, 00:40:04,VALID,1004.41,VALID,0,VALID,89.296,VALID,0,VALID,26.1765,VALID,23,VALID,0.354297,
2011-02-20, 00:41:04,VALID,1004.43,VALID,0,VALID,89.4868,VALID,0,VALID,26.1355,VALID,67,VALID,0.457812,
2011-02-20, 00:42:04,VALID,1004.41,VALID,0,VALID,89.5402,VALID,0,VALID,26.1375,VALID,24,VALID,1.28594,
2011-02-20, 00:43:04,VALID,1004.43,VALID,0,VALID,89.6241,VALID,0,VALID,26.1375,VALID,2,VALID,0.453125,
2011-02-20, 00:44:04,VALID,1004.43,VALID,0,VALID,89.5783,VALID,0,VALID,26.118,VALID,15,VALID,1.24297,
2011-02-20, 00:45:04,VALID,1004.43,VALID,0,VALID,90.0971,VALID,0,VALID,26.118,VALID,20,VALID,0.0195313,
2011-02-20, 00:46:04,VALID,1004.45,VALID,0,VALID,90.3565,VALID,0,VALID,26.0985,VALID,20,VALID,0,
2011-02-20, 00:47:04,VALID,1004.48,VALID,0,VALID,90.1657,VALID,0,VALID,26.0596,VALID,20,VALID,0,
2011-02-20, 00:48:04,VALID,1004.51,VALID,0,VALID,90.2115,VALID,0,VALID,26.0401,VALID,20,VALID,0,
2011-02-20, 00:49:04,VALID,1004.53,VALID,0,VALID,90.7684,VALID,0,VALID,26.0206,VALID,20,VALID,0.353125,
2011-02-20, 00:50:04,VALID,1004.51,VALID,0,VALID,91.5466,VALID,0,VALID,25.9797,VALID,51,VALID,0.443359,
2011-02-20, 00:51:04,VALID,1004.54,VALID,0,VALID,91.5847,VALID,0,VALID,26.0031,VALID,84,VALID,0.568359,
2011-02-20, 00:52:04,VALID,1004.54,VALID,0,VALID,91.6457,VALID,0,VALID,25.9817,VALID,154,VALID,0.770312,
2011-02-20, 00:53:04,VALID,1004.58,VALID,0,VALID,91.4703,VALID,0,VALID,25.9622,VALID,158,VALID,0.370313,
2011-02-20, 00:54:04,VALID,1004.55,VALID,0,VALID,91.7068,VALID,0,VALID,25.9622,VALID,158,VALID,0.15,
2011-02-20, 00:55:04,VALID,1004.56,VALID,0,VALID,91.6229,VALID,0,VALID,25.9622,VALID,158,VALID,0.0078125,
2011-02-20, 00:56:04,VALID,1004.56,VALID,0,VALID,92.1416,VALID,0,VALID,25.9602,VALID,69,VALID,0.398828,
2011-02-20, 00:57:04,VALID,1004.55,VALID,0,VALID,92.1721,VALID,0.100563,VALID,25.9408,VALID,61,VALID,0.6875,
2011-02-20, 00:58:04,VALID,1004.55,VALID,0,VALID,92.1035,VALID,0.100563,VALID,25.8823,VALID,48,VALID,0.56875,
2011-02-20, 00:59:04,VALID,1004.52,VALID,0,VALID,92.7367,VALID,0.100563,VALID,25.8219,VALID,48,VALID,0.386328,
2011-02-20, 01:00:04,VALID,1004.52,VALID,0,VALID,93.0723,VALID,0.100563,VALID,25.785,VALID,48,VALID,0.301562,
2011-02-20, 01:01:04,VALID,1004.49,VALID,0,VALID,93.2097,VALID,0,VALID,25.746,VALID,48,VALID,0.321875,
2011-02-20, 01:02:04,VALID,1004.45,VALID,0,VALID,93.4462,VALID,0,VALID,25.7071,VALID,48,VALID,0.0917969,
2011-02-20, 01:03:04,VALID,1004.43,VALID,0,VALID,93.4996,VALID,0,VALID,25.6486,VALID,48,VALID,0.28125,
2011-02-20, 01:04:04,VALID,1004.45,VALID,0,VALID,94.0183,VALID,0,VALID,25.6292,VALID,48,VALID,0.084375,
2011-02-20, 01:05:04,VALID,1004.46,VALID,0,VALID,94.0717,VALID,0,VALID,25.5902,VALID,48,VALID,0.395703,
2011-02-20, 01:06:04,VALID,1004.46,VALID,0,VALID,94.7278,VALID,0,VALID,25.5298,VALID,48,VALID,0.373437,
2011-02-20, 01:07:04,VALID,1004.46,VALID,0,VALID,94.7736,VALID,0,VALID,25.4928,VALID,48,VALID,0.28125,
2011-02-20, 01:08:04,VALID,1004.45,VALID,0,VALID,95.155,VALID,0,VALID,25.4344,VALID,48,VALID,0.113281,
2011-02-20, 01:09:04,VALID,1004.48,VALID,0,VALID,95.9179,VALID,0.100563,VALID,25.413,VALID,48,VALID,0.228516,
2011-02-20, 01:10:04,VALID,1004.44,VALID,0,VALID,96.3833,VALID,0,VALID,25.3955,VALID,48,VALID,0,
2011-02-20, 01:11:04,VALID,1004.47,VALID,0,VALID,96.6198,VALID,0,VALID,25.3584,VALID,48,VALID,0,
2011-02-20, 01:12:04,VALID,1004.44,VALID,0,VALID,96.8029,VALID,0,VALID,25.3798,VALID,48,VALID,0.00078125,
2011-02-20, 01:13:04,VALID,1004.42,VALID,0,VALID,97.6802,VALID,0,VALID,25.3584,VALID,48,VALID,0.0539063,
2011-02-20, 01:14:04,VALID,1004.43,VALID,0,VALID,99.74,VALID,0,VALID,25.3779,VALID,48,VALID,0,
2011-02-20, 01:15:04,VALID,1004.39,VALID,0,VALID,104,VALID,0,VALID,25.3779,VALID,48,VALID,0,
2011-02-20, 01:16:04,VALID,1004.4,VALID,0,VALID,104,VALID,0,VALID,25.3565,VALID,48,VALID,0,
2011-02-20, 01:17:04,VALID,1004.38,VALID,0,VALID,104,VALID,0,VALID,25.3584,VALID,48,VALID,0,
2011-02-20, 01:18:04,VALID,1004.4,VALID,0,INVALID,113.678,VALID,0,VALID,25.3779,VALID,48,VALID,0,
2011-02-20, 01:19:04,VALID,1004.37,VALID,0,INVALID,127.112,VALID,0,VALID,25.3779,VALID,48,VALID,0.00234375,
2011-02-20, 01:20:04,VALID,1004.37,VALID,0,INVALID,163.517,VALID,0,VALID,25.4169,VALID,48,VALID,0.314453,
2011-02-20, 01:21:04,VALID,1004.35,VALID,0,INVALID,150.846,VALID,0,VALID,25.3974,VALID,169,VALID,0.639063,
2011-02-20, 01:22:04,VALID,1004.33,VALID,0,INVALID,154.462,VALID,0,VALID,25.3974,VALID,169,VALID,0.560156,
2011-02-20, 01:23:04,VALID,1004.34,VALID,0,INVALID,138.205,VALID,0,VALID,25.3974,VALID,169,VALID,0.454688,
2011-02-20, 01:24:04,VALID,1004.35,VALID,0,INVALID,137.373,VALID,0,VALID,25.3974,VALID,169,VALID,0.564062,
2011-02-20, 01:25:04,VALID,1004.33,VALID,0,INVALID,139.517,VALID,0,VALID,25.4169,VALID,169,VALID,0.421484,
2011-02-20, 01:26:04,VALID,1004.34,VALID,0,INVALID,143.759,VALID,0,VALID,25.413,VALID,169,VALID,0.446484,
2011-02-20, 01:27:04,VALID,1004.3,VALID,0,INVALID,140.204,VALID,0.100563,VALID,25.4344,VALID,169,VALID,0.290625,
2011-02-20, 01:28:04,VALID,1004.31,VALID,0,INVALID,135.191,VALID,0.100563,VALID,25.4344,VALID,169,VALID,0.377344,
2011-02-20, 01:29:04,VALID,1004.31,VALID,0,INVALID,127.974,VALID,0,VALID,25.4344,VALID,169,VALID,0.282422,
2011-02-20, 01:30:04,VALID,1004.29,VALID,0,INVALID,117.637,VALID,0.100563,VALID,25.4734,VALID,169,VALID,0.208984,
2011-02-20, 01:31:04,VALID,1004.28,VALID,0,INVALID,120.91,VALID,0,VALID,25.4734,VALID,169,VALID,0.160156,
2011-02-20, 01:32:04,VALID,1004.27,VALID,0,INVALID,112.907,VALID,0,VALID,25.4928,VALID,169,VALID,0.410156,
2011-02-20, 01:33:04,VALID,1004.26,VALID,0,INVALID,109.673,VALID,0.100563,VALID,25.5104,VALID,169,VALID,0.284375,
2011-02-20, 01:34:04,VALID,1004.26,VALID,0,VALID,104,VALID,0,VALID,25.5318,VALID,169,VALID,0,
2011-02-20, 01:35:04,VALID,1004.22,VALID,0,VALID,104,VALID,0,VALID,25.5513,VALID,169,VALID,0,
2011-02-20, 01:36:04,VALID,1004.22,VALID,0,VALID,103.371,VALID,0,VALID,25.5513,VALID,169,VALID,0.03125,
2011-02-20, 01:37:04,VALID,1004.21,VALID,0,VALID,102.212,VALID,0,VALID,25.5513,VALID,169,VALID,0,
2011-02-20, 01:38:04,VALID,1004.18,VALID,0,VALID,102.624,VALID,0,VALID,25.5513,VALID,169,VALID,0.0347656,
2011-02-20, 01:39:04,VALID,1004.18,VALID,0,VALID,104,VALID,0,VALID,25.5707,VALID,169,VALID,0.297656,
2011-02-20, 01:40:04,VALID,1004.15,VALID,0,INVALID,109.886,VALID,0,VALID,25.5707,VALID,94,VALID,0.416016,
2011-02-20, 01:41:04,VALID,1004.15,VALID,0,INVALID,114.189,VALID,0,VALID,25.5337,VALID,94,VALID,0.501953,
2011-02-20, 01:42:04,VALID,1004.07,VALID,0,INVALID,117.614,VALID,0,VALID,25.4753,VALID,94,VALID,0.311719,
2011-02-20, 01:43:04,VALID,1004.04,VALID,0,INVALID,118.721,VALID,0,VALID,25.4363,VALID,94,VALID,0.425781,
2011-02-20, 01:44:04,VALID,1004,VALID,0,INVALID,122.97,VALID,0,VALID,25.3955,VALID,93,VALID,0.528125,
2011-02-20, 01:45:04,VALID,1003.97,VALID,0,INVALID,125.045,VALID,0,VALID,25.376,VALID,90,VALID,0.407031,
2011-02-20, 01:46:04,VALID,1003.94,VALID,0,INVALID,136.29,VALID,0,VALID,25.337,VALID,46,VALID,0.792578,
2011-02-20, 01:47:04,VALID,1003.89,VALID,0,INVALID,160.885,VALID,0,VALID,25.2786,VALID,42,VALID,0.593359,
2011-02-20, 01:48:04,VALID,1003.85,VALID,0,INVALID,163.556,VALID,0,VALID,25.2611,VALID,42,VALID,0.608984,
2011-02-20, 01:49:04,VALID,1003.82,VALID,0,INVALID,163.571,VALID,0,VALID,25.2416,VALID,42,VALID,0.457422,
2011-02-20, 01:50:04,VALID,1003.79,VALID,0,INVALID,163.571,VALID,0,VALID,25.2007,VALID,42,VALID,0.198437,
2011-02-20, 01:51:04,VALID,1003.74,VALID,0,INVALID,163.586,VALID,0,VALID,25.1813,VALID,42,VALID,0.319531,
2011-02-20, 01:52:04,VALID,1003.69,VALID,0,INVALID,163.601,VALID,0,VALID,25.1618,VALID,42,VALID,0.642578,
2011-02-20, 01:53:04,VALID,1003.63,VALID,0,INVALID,163.609,VALID,0,VALID,25.1423,VALID,75,VALID,0.6375,
2011-02-20, 01:54:04,VALID,1003.58,VALID,0,INVALID,163.609,VALID,0,VALID,25.1034,VALID,90,VALID,0.514063,
2011-02-20, 01:55:04,VALID,1003.54,VALID,0,INVALID,163.624,VALID,0,VALID,25.0644,VALID,88,VALID,0.578906,
2011-02-20, 01:56:04,VALID,1003.55,VALID,0,INVALID,163.624,VALID,0,VALID,25.0644,VALID,77,VALID,0.518359,
2011-02-20, 01:57:04,VALID,1003.52,VALID,0,INVALID,163.617,VALID,0,VALID,25.0255,VALID,68,VALID,0.434766,
2011-02-20, 01:58:04,VALID,1003.54,VALID,0,INVALID,163.601,VALID,0,VALID,25.0079,VALID,68,VALID,0.563672,
2011-02-20, 01:59:04,VALID,1003.55,VALID,0,INVALID,163.624,VALID,0,VALID,24.969,VALID,65,VALID,0.338672,
2011-02-20, 02:00:04,VALID,1003.54,VALID,0,INVALID,163.594,VALID,0,VALID,24.9495,VALID,56,VALID,0.202344,
2011-02-20, 02:01:04,VALID,1003.53,VALID,0,INVALID,163.632,VALID,0,VALID,24.9087,VALID,56,VALID,0.0933594,
2011-02-20, 02:02:04,VALID,1003.55,VALID,0,INVALID,163.624,VALID,0,VALID,24.9087,VALID,56,VALID,0.128906,
2011-02-20, 02:03:04,VALID,1003.55,VALID,0,INVALID,163.624,VALID,0,VALID,24.8892,VALID,56,VALID,0.3125,
2011-02-20, 02:04:04,VALID,1003.52,VALID,0,INVALID,163.617,VALID,0,VALID,24.8697,VALID,56,VALID,0.0621094,
2011-02-20, 02:05:04,VALID,1003.51,VALID,0,INVALID,163.632,VALID,0,VALID,24.8716,VALID,56,VALID,0,
2011-02-20, 02:06:04,VALID,1003.51,VALID,0,INVALID,163.639,VALID,0,VALID,24.8308,VALID,56,VALID,0.282813,
2011-02-20, 02:07:04,VALID,1003.53,VALID,0,INVALID,163.624,VALID,0,VALID,24.8522,VALID,63,VALID,0.244531,
2011-02-20, 02:08:04,VALID,1003.5,VALID,0,INVALID,163.617,VALID,0,VALID,24.8308,VALID,63,VALID,0.417969,
2011-02-20, 02:09:04,VALID,1003.54,VALID,0,INVALID,163.624,VALID,0,VALID,24.8327,VALID,78,VALID,0.571094,
2011-02-20, 02:10:04,VALID,1003.5,VALID,0,INVALID,163.632,VALID,0,VALID,24.8113,VALID,78,VALID,0.574219,
2011-02-20, 02:11:04,VALID,1003.48,VALID,0,INVALID,163.617,VALID,0,VALID,24.8113,VALID,78,VALID,0.460938,
2011-02-20, 02:12:04,VALID,1003.49,VALID,0,INVALID,163.609,VALID,0,VALID,24.8132,VALID,78,VALID,0.516797,
2011-02-20, 02:13:04,VALID,1003.49,VALID,0,INVALID,163.624,VALID,0,VALID,24.7919,VALID,78,VALID,0.457422,
2011-02-20, 02:14:04,VALID,1003.46,VALID,0,INVALID,163.639,VALID,0,VALID,24.7724,VALID,78,VALID,0.194531,
2011-02-20, 02:15:04,VALID,1003.46,VALID,0,INVALID,163.655,VALID,0,VALID,24.7937,VALID,78,VALID,0.155078,
2011-02-20, 02:16:04,VALID,1003.45,VALID,0,INVALID,163.647,VALID,0,VALID,24.7743,VALID,78,VALID,0,
2011-02-20, 02:17:04,VALID,1003.43,VALID,0,INVALID,163.639,VALID,0,VALID,24.7529,VALID,78,VALID,0,
2011-02-20, 02:18:04,VALID,1003.39,VALID,0,INVALID,163.624,VALID,0,VALID,24.7743,VALID,78,VALID,0.106641,
2011-02-20, 02:19:04,VALID,1003.45,VALID,0,INVALID,163.647,VALID,0,VALID,24.7335,VALID,78,VALID,0,
2011-02-20, 02:20:04,VALID,1003.43,VALID,0,INVALID,163.624,VALID,0,VALID,24.7548,VALID,78,VALID,0.1125,
2011-02-20, 02:21:04,VALID,1003.43,VALID,0,INVALID,163.67,VALID,0,VALID,24.7529,VALID,60,VALID,0.635547,
2011-02-20, 02:22:04,VALID,1003.46,VALID,0,INVALID,163.647,VALID,0,VALID,24.7548,VALID,49,VALID,0.359766,
2011-02-20, 02:23:04,VALID,1003.42,VALID,0,INVALID,163.647,VALID,0,VALID,24.7548,VALID,49,VALID,0.227344,
2011-02-20, 02:24:04,VALID,1003.43,VALID,0,INVALID,163.67,VALID,0,VALID,24.7335,VALID,49,VALID,0,
2011-02-20, 02:25:04,VALID,1003.42,VALID,0,INVALID,163.632,VALID,0,VALID,24.7335,VALID,49,VALID,0,
2011-02-20, 02:26:04,VALID,1003.42,VALID,0,INVALID,163.624,VALID,0,VALID,24.7743,VALID,49,VALID,0.114453,
2011-02-20, 02:27:04,VALID,1003.4,VALID,0,INVALID,163.639,VALID,0,VALID,24.7937,VALID,49,VALID,0.242969,
2011-02-20, 02:28:04,VALID,1003.38,VALID,0,INVALID,163.617,VALID,0,VALID,24.7937,VALID,49,VALID,0.301953,
2011-02-20, 02:29:04,VALID,1003.35,VALID,0,INVALID,163.639,VALID,0,VALID,24.7919,VALID,49,VALID,0.602734,
2011-02-20, 02:30:04,VALID,1003.31,VALID,0,INVALID,163.624,VALID,0,VALID,24.7724,VALID,49,VALID,0.380469,
2011-02-20, 02:31:04,VALID,1003.32,VALID,0,INVALID,163.639,VALID,0,VALID,24.7724,VALID,49,VALID,0.510938,
2011-02-20, 02:32:04,VALID,1003.3,VALID,0,INVALID,163.655,VALID,0,VALID,24.7919,VALID,49,VALID,0.403516,
2011-02-20, 02:33:04,VALID,1003.28,VALID,0,INVALID,163.662,VALID,0,VALID,24.8113,VALID,49,VALID,0.391797,
2011-02-20, 02:34:04,VALID,1003.27,VALID,0,INVALID,163.647,VALID,0,VALID,24.8132,VALID,49,VALID,0.0949219,
2011-02-20, 02:35:04,VALID,1003.27,VALID,0,INVALID,163.639,VALID,0,VALID,24.7919,VALID,49,VALID,0,
2011-02-20, 02:36:04,VALID,1003.27,VALID,0,INVALID,163.617,VALID,0,VALID,24.7937,VALID,49,VALID,0,
2011-02-20, 02:37:04,VALID,1003.3,VALID,0,INVALID,163.639,VALID,0,VALID,24.7724,VALID,49,VALID,0,
2011-02-20, 02:38:04,VALID,1003.28,VALID,0,INVALID,163.632,VALID,0,VALID,24.751,VALID,49,VALID,0,
2011-02-20, 02:39:04,VALID,1003.31,VALID,0,INVALID,163.601,VALID,0,VALID,24.7724,VALID,49,VALID,0,
2011-02-20, 02:40:04,VALID,1003.32,VALID,0,INVALID,163.624,VALID,0,VALID,24.7919,VALID,49,VALID,0.494531,
2011-02-20, 02:41:04,VALID,1003.32,VALID,0,INVALID,163.639,VALID,0,VALID,24.7919,VALID,49,VALID,0.553906,
2011-02-20, 02:42:04,VALID,1003.34,VALID,0,INVALID,163.632,VALID,0,VALID,24.8113,VALID,49,VALID,0.595703,
2011-02-20, 02:43:04,VALID,1003.36,VALID,0,INVALID,163.617,VALID,0,VALID,24.8113,VALID,49,VALID,0.373828,
2011-02-20, 02:44:04,VALID,1003.37,VALID,0,INVALID,163.632,VALID,0,VALID,24.8308,VALID,49,VALID,0.167578,
2011-02-20, 02:45:04,VALID,1003.33,VALID,0,INVALID,163.647,VALID,0,VALID,24.8503,VALID,48,VALID,0.275,
2011-02-20, 02:46:04,VALID,1003.32,VALID,0,INVALID,163.601,VALID,0,VALID,24.8308,VALID,47,VALID,0.419141,
2011-02-20, 02:47:04,VALID,1003.28,VALID,0,INVALID,163.624,VALID,0,VALID,24.8503,VALID,47,VALID,0.257031,
2011-02-20, 02:48:04,VALID,1003.25,VALID,0,INVALID,163.662,VALID,0,VALID,24.8716,VALID,47,VALID,0.146094,
2011-02-20, 02:49:04,VALID,1003.2,VALID,0,INVALID,163.647,VALID,0,VALID,24.8308,VALID,47,VALID,0.244141,
2011-02-20, 02:50:04,VALID,1003.2,VALID,0,INVALID,163.647,VALID,0,VALID,24.8522,VALID,47,VALID,0.189063,
2011-02-20, 02:51:04,VALID,1003.23,VALID,0,INVALID,163.662,VALID,0,VALID,24.7919,VALID,47,VALID,0.246484,
2011-02-20, 02:52:04,VALID,1003.22,VALID,0,INVALID,163.639,VALID,0,VALID,24.7919,VALID,47,VALID,0.163281,
2011-02-20, 02:53:04,VALID,1003.24,VALID,0,INVALID,163.655,VALID,0,VALID,24.7529,VALID,47,VALID,0.326953,
2011-02-20, 02:54:04,VALID,1003.22,VALID,0,INVALID,163.662,VALID,0,VALID,24.7548,VALID,47,VALID,0.0210938,
2011-02-20, 02:55:04,VALID,1003.21,VALID,0,INVALID,163.655,VALID,0,VALID,24.7548,VALID,47,VALID,0,
2011-02-20, 02:56:04,VALID,1003.2,VALID,0,INVALID,163.617,VALID,0,VALID,24.7335,VALID,47,VALID,0,
2011-02-20, 02:57:04,VALID,1003.21,VALID,0,INVALID,163.632,VALID,0,VALID,24.7353,VALID,47,VALID,0,
2011-02-20, 02:58:04,VALID,1003.17,VALID,0,INVALID,163.632,VALID,0,VALID,24.714,VALID,47,VALID,0,
2011-02-20, 02:59:04,VALID,1003.19,VALID,0,INVALID,163.624,VALID,0,VALID,24.6945,VALID,47,VALID,0.289063,
2011-02-20, 03:00:04,VALID,1003.19,VALID,0,INVALID,163.624,VALID,0,VALID,24.7353,VALID,47,VALID,0.277734,
2011-02-20, 03:01:04,VALID,1003.21,VALID,0,INVALID,163.617,VALID,0,VALID,24.7353,VALID,47,VALID,0,
2011-02-20, 03:02:04,VALID,1003.21,VALID,0,INVALID,163.617,VALID,0,VALID,24.714,VALID,47,VALID,0,
2011-02-20, 03:03:04,VALID,1003.23,VALID,0,INVALID,163.632,VALID,0,VALID,24.7353,VALID,47,VALID,0.00117188,
2011-02-20, 03:04:04,VALID,1003.24,VALID,0,INVALID,163.662,VALID,0,VALID,24.6945,VALID,47,VALID,0.289063,
2011-02-20, 03:05:04,VALID,1003.23,VALID,0,INVALID,163.639,VALID,0,VALID,24.675,VALID,47,VALID,0.153516,
2011-02-20, 03:06:04,VALID,1003.27,VALID,0,INVALID,163.639,VALID,0,VALID,24.6556,VALID,47,VALID,0,
2011-02-20, 03:07:04,VALID,1003.26,VALID,0,INVALID,163.655,VALID,0,VALID,24.6361,VALID,47,VALID,0,
2011-02-20, 03:08:04,VALID,1003.27,VALID,0,INVALID,163.655,VALID,0,VALID,24.638,VALID,47,VALID,0,
2011-02-20, 03:09:04,VALID,1003.29,VALID,0,INVALID,163.624,VALID,0,VALID,24.6166,VALID,47,VALID,0.133203,
2011-02-20, 03:10:04,VALID,1003.28,VALID,0,INVALID,163.639,VALID,0,VALID,24.5972,VALID,47,VALID,0.351172,
2011-02-20, 03:11:04,VALID,1003.32,VALID,0,INVALID,163.655,VALID,0,VALID,24.5777,VALID,47,VALID,0.370703,
2011-02-20, 03:12:04,VALID,1003.32,VALID,0,INVALID,163.632,VALID,0,VALID,24.5582,VALID,47,VALID,0.197266,
2011-02-20, 03:13:04,VALID,1003.32,VALID,0,INVALID,163.632,VALID,0,VALID,24.5582,VALID,47,VALID,0.187891,
2011-02-20, 03:14:04,VALID,1003.32,VALID,0,INVALID,163.647,VALID,0,VALID,24.5388,VALID,47,VALID,0.243359,
2011-02-20, 03:15:04,VALID,1003.32,VALID,0,INVALID,163.655,VALID,0,VALID,24.5582,VALID,47,VALID,0.273438,
2011-02-20, 03:16:04,VALID,1003.36,VALID,0,INVALID,163.647,VALID,0,VALID,24.5388,VALID,47,VALID,0.354688,
2011-02-20, 03:17:04,VALID,1003.35,VALID,0,INVALID,163.624,VALID,0,VALID,24.5601,VALID,47,VALID,0.353516,
2011-02-20, 03:18:04,VALID,1003.36,VALID,0,INVALID,163.647,VALID,0,VALID,24.5388,VALID,47,VALID,0.312891,
2011-02-20, 03:19:04,VALID,1003.37,VALID,0,INVALID,163.647,VALID,0,VALID,24.5388,VALID,43,VALID,0.496094,
2011-02-20, 03:20:04,VALID,1003.37,VALID,0,INVALID,163.639,VALID,0,VALID,24.5212,VALID,34,VALID,0.523047,
2011-02-20, 03:21:04,VALID,1003.39,VALID,0,INVALID,163.67,VALID,0.100563,VALID,24.4804,VALID,1,VALID,0.850391,
2011-02-20, 03:22:04,VALID,1003.41,VALID,0,INVALID,163.67,VALID,0,VALID,24.4396,VALID,354,VALID,0.829297,
2011-02-20, 03:23:04,VALID,1003.46,VALID,0,INVALID,163.639,VALID,0.100563,VALID,24.4414,VALID,354,VALID,0.684375,
2011-02-20, 03:24:04,VALID,1003.48,VALID,0,INVALID,163.685,VALID,0.100563,VALID,24.4804,VALID,350,VALID,0.398047,
2011-02-20, 03:25:04,VALID,1003.49,VALID,0,INVALID,163.662,VALID,0,VALID,24.4998,VALID,354,VALID,0.914844,
2011-02-20, 03:26:04,VALID,1003.52,VALID,0,INVALID,163.655,VALID,0,VALID,24.5193,VALID,337,VALID,0.885938,
2011-02-20, 03:27:04,VALID,1003.54,VALID,0,INVALID,163.639,VALID,0,VALID,24.5582,VALID,311,VALID,0.202734,
2011-02-20, 03:28:04,VALID,1003.55,VALID,0,INVALID,163.655,VALID,0,VALID,24.5972,VALID,340,VALID,0.466797,
2011-02-20, 03:29:04,VALID,1003.58,VALID,0,INVALID,163.639,VALID,0,VALID,24.638,VALID,345,VALID,0.753516,
2011-02-20, 03:30:04,VALID,1003.57,VALID,0,INVALID,163.632,VALID,0,VALID,24.6556,VALID,345,VALID,0.611328,
2011-02-20, 03:31:04,VALID,1003.6,VALID,0,INVALID,163.647,VALID,0,VALID,24.6537,VALID,351,VALID,0.36875,
2011-02-20, 03:32:04,VALID,1003.61,VALID,0,INVALID,163.639,VALID,0,VALID,24.714,VALID,351,VALID,0.227734,
2011-02-20, 03:33:04,VALID,1003.63,VALID,0,INVALID,163.639,VALID,0,VALID,24.7529,VALID,351,VALID,0.0253906,
2011-02-20, 03:34:04,VALID,1003.63,VALID,0,INVALID,163.655,VALID,0,VALID,24.751,VALID,294,VALID,0.528516,
2011-02-20, 03:35:04,VALID,1003.69,VALID,0,INVALID,163.624,VALID,0,VALID,24.751,VALID,276,VALID,0,
2011-02-20, 03:36:04,VALID,1003.67,VALID,0,INVALID,163.617,VALID,0,VALID,24.7919,VALID,277,VALID,0.0925781,
2011-02-20, 03:37:04,VALID,1003.67,VALID,0,INVALID,163.617,VALID,0,VALID,24.8113,VALID,312,VALID,0.369531,
2011-02-20, 03:38:04,VALID,1003.7,VALID,0,INVALID,163.639,VALID,0,VALID,24.8308,VALID,331,VALID,0.485547,
2011-02-20, 03:39:04,VALID,1003.74,VALID,0,INVALID,163.624,VALID,0,VALID,24.8503,VALID,349,VALID,0.275,
2011-02-20, 03:40:04,VALID,1003.73,VALID,0,INVALID,163.639,VALID,0.100563,VALID,24.8697,VALID,349,VALID,0.260938,
2011-02-20, 03:41:04,VALID,1003.74,VALID,0,INVALID,163.624,VALID,0,VALID,24.8892,VALID,355,VALID,0.675391,
2011-02-20, 03:42:04,VALID,1003.76,VALID,0,INVALID,163.647,VALID,0,VALID,24.9087,VALID,354,VALID,0.432031,
2011-02-20, 03:43:04,VALID,1003.78,VALID,0,INVALID,163.632,VALID,0,VALID,24.9495,VALID,354,VALID,0.616016,
2011-02-20, 03:44:04,VALID,1003.82,VALID,0,INVALID,163.624,VALID,0,VALID,24.9282,VALID,350,VALID,0.7125,